M8FSI-13 Weather Reports


time (UTC)temp
F
wind
direction
speed
knots
gust
knots
rain 1hr
in
rain 24hr
in
rain mn
in
humidity
%
barometer
mb
20260506050612 50 45 1.7 8.7 0.00 0.00 0.00 77 1013.2
20260506044518 50 45 1.7 4.3 0.00 0.00 0.00 77 1012.9
20260506043534 50 0.0 0.9 0.00 0.00 0.00 77 1013.0
20260506042538 50 0.0 0.9 0.00 0.00 0.00 76 1013.0
20260506041534 50 0.0 1.7 0.00 0.00 0.00 75 1013.0
20260506040533 50 0.0 0.9 0.00 0.00 0.00 75 1012.9
20260506035518 50 0.0 0.9 0.00 0.00 0.00 75 1012.9
20260506034557 50 45 1.7 3.5 0.00 0.00 0.00 74 1012.9
20260506033548 50 45 2.6 5.2 0.00 0.00 0.00 73 1012.8
20260506032520 51 45 2.6 7.0 0.00 0.00 0.00 73 1012.9
20260506031519 51 68 2.6 4.3 0.00 0.00 0.00 72 1012.9
20260506030533 51 68 3.5 9.6 0.00 0.00 0.00 72 1012.9
20260506025518 51 45 2.6 5.2 0.00 0.00 0.00 72 1012.9
20260506024535 51 68 2.6 7.8 0.00 0.00 0.00 71 1012.8
20260506023534 51 45 5.2 8.7 0.00 0.00 0.00 71 1012.8
20260506022518 51 45 4.3 7.8 0.00 0.00 0.00 71 1012.8
20260506021519 52 45 3.5 7.8 0.00 0.00 0.00 71 1012.8
20260506020520 52 45 2.6 6.1 0.00 0.00 0.00 72 1012.9
20260506015519 52 45 1.7 4.3 0.00 0.00 0.00 72 1013.1
20260506014548 52 45 2.6 6.1 0.00 0.00 0.00 74 1013.0
20260506013538 52 45 1.7 3.5 0.00 0.00 0.00 74 1013.1
20260506012518 52 45 1.7 5.2 0.00 0.00 0.00 74 1013.1
20260506011538 52 23 1.7 5.2 0.00 0.00 0.00 74 1013.0
20260506010533 52 68 1.7 3.5 0.00 0.00 0.00 73 1013.0
20260506005519 53 45 1.7 5.2 0.00 0.00 0.00 72 1013.1
20260506004533 53 45 1.7 4.3 0.00 0.00 0.00 72 1013.2
20260506003520 53 45 3.5 6.1 0.00 0.00 0.00 71 1013.2
20260506002533 53 45 2.6 4.3 0.00 0.00 0.00 71 1013.2
20260506001533 53 45 3.5 6.1 0.00 0.00 0.00 70 1013.2
20260506000534 53 23 1.7 3.5 0.00 0.00 0.00 69 1013.3
20260505235519 53 68 1.7 2.6 0.00 0.00 0.00 68 1013.2
20260505234518 53 68 2.6 4.3 0.00 0.00 0.00 67 1013.2
20260505233518 54 68 2.6 5.2 0.00 0.00 0.00 67 1013.2
20260505232521 54 68 3.5 9.6 0.00 0.00 0.00 65 1013.2
20260505231520 54 68 2.6 7.0 0.00 0.00 0.00 64 1013.1
20260505230519 54 68 2.6 7.0 0.00 0.00 0.00 62 1013.1
20260505225533 54 68 2.6 6.1 0.00 0.00 0.00 62 1013.1
20260505224613 55 45 2.6 7.0 0.00 0.00 0.00 63 1013.0
20260505223539 55 68 3.5 8.7 0.00 0.00 0.00 64 1013.0
20260505222559 55 68 2.6 6.1 0.00 0.00 0.00 66 1013.0
20260505221518 55 68 3.5 6.1 0.00 0.00 0.00 66 1012.7
20260505220519 56 68 4.3 8.7 0.00 0.00 0.00 66 1012.6
20260505215522 56 68 2.6 5.2 0.00 0.00 0.00 70 1012.5
20260505214534 56 45 1.7 3.5 0.00 0.00 0.00 73 1012.5
20260505213544 56 68 1.7 2.6 0.00 0.00 0.00 72 1012.6
20260505212621 56 45 0.9 1.7 0.00 0.00 0.00 72 1012.6
20260505211518 56 0.0 1.7 0.00 0.00 0.00 73 1012.5
20260505210541 56 0.0 0.9 0.00 0.00 0.00 73 1012.4
20260505205520 56 0.0 0.9 0.00 0.00 0.00 72 1012.4
20260505204611 56 0.0 0.9 0.00 0.00 0.00 72 1012.4
20260505203535 57 0.0 1.7 0.00 0.00 0.00 71 1012.5
20260505202520 57 0.0 0.9 0.00 0.00 0.00 71 1012.4
20260505201620 57 0.0 0.9 0.00 0.00 0.00 70 1012.4
20260505200540 57 0.0 0.9 0.00 0.00 0.00 70 1012.4
20260505195520 57 338 0.9 1.7 0.00 0.00 0.00 70 1012.4
20260505194538 57 0.0 0.9 0.00 0.00 0.00 71 1012.3
20260505193519 57 0.0 0.9 0.00 0.00 0.00 71 1012.1
20260505192541 58 68 0.9 1.7 0.00 0.00 0.00 69 1012.2
20260505191535 58 68 0.9 2.6 0.00 0.00 0.00 67 1012.1
20260505190540 58 315 0.9 2.6 0.00 0.00 0.00 67 1012.1
20260505185525 58 0.0 1.7 0.00 0.00 0.00 67 1012.0
20260505184520 59 0.0 2.6 0.00 0.00 0.00 66 1012.0
20260505183520 59 0.0 1.7 0.00 0.00 0.00 66 1012.0
20260505182520 59 315 0.9 2.6 0.00 0.00 0.00 65 1011.8
20260505181535 59 0.0 1.7 0.00 0.00 0.00 65 1011.8
20260505180519 60 0.0 1.7 0.00 0.02 0.00 64 1011.8
20260505175535 60 0.0 1.7 0.00 0.02 0.00 63 1011.9
20260505174521 59 23 0.9 1.7 0.00 0.02 0.00 63 1011.9
20260505173559 59 315 0.9 3.5 0.00 0.02 0.00 63 1011.9
20260505172601 60 315 0.9 3.5 0.00 0.02 0.00 62 1011.9
20260505171520 60 0.0 1.7 0.00 0.02 0.00 62 1011.9
20260505170534 60 315 0.9 1.7 0.00 0.02 0.00 61 1011.9
20260505165534 60 293 0.9 3.5 0.00 0.02 0.00 61 1012.1
20260505164519 60 0 0.9 2.6 0.00 0.02 0.00 60 1012.1
20260505163605 61 23 1.7 5.2 0.00 0.02 0.00 59 1011.9
20260505162555 61 0 0.9 2.6 0.00 0.02 0.00 58 1011.9
20260505161520 61 45 1.7 5.2 0.00 0.02 0.00 56 1011.9
20260505160521 62 0 0.9 2.6 0.00 0.02 0.00 57 1012.0
20260505152519 61 315 0.9 5.2 0.00 0.02 0.00 57 1012.0
20260505151519 61 315 0.9 3.5 0.00 0.02 0.00 57 1012.0
20260505150601 61 23 0.9 3.5 0.00 0.02 0.00 57 1012.2
20260505140519 62 23 1.7 5.2 0.00 0.02 0.00 59 1012.3
20260505124520 61 68 2.6 5.2 0.00 0.02 0.00 61 1012.7
20260505123519 60 338 2.6 5.2 0.00 0.02 0.00 63 1012.7
20260505122519 60 315 2.6 6.1 0.00 0.02 0.00 63 1012.8
20260505121524 59 315 1.7 5.2 0.00 0.02 0.00 64 1012.9
20260505120554 59 293 1.7 2.6 0.00 0.02 0.00 64 1012.9
20260505115534 59 338 0.9 2.6 0.00 0.02 0.00 65 1012.8
20260505114614 59 293 1.7 4.3 0.00 0.02 0.00 65 1012.9
20260505113535 59 23 2.6 7.8 0.00 0.02 0.00 64 1013.0
20260505112520 59 45 1.7 7.0 0.00 0.02 0.00 64 1012.9
20260505111519 60 0 1.7 6.1 0.00 0.02 0.00 63 1013.1
20260505110539 60 68 1.7 5.2 0.00 0.02 0.00 63 1013.1
20260505101539 61 338 3.5 7.8 0.00 0.02 0.00 58 1013.0
20260505100539 60 45 3.5 7.8 0.00 0.02 0.00 59 1013.0
20260505095533 60 315 3.5 8.7 0.00 0.02 0.00 61 1012.9
20260505094520 60 315 3.5 10.4 0.00 0.02 0.00 62 1013.1
20260505093519 60 23 3.5 7.8 0.00 0.02 0.00 61 1012.9
20260505092519 60 315 2.6 7.8 0.00 0.02 0.00 64 1013.1
20260505091534 59 270 1.7 4.3 0.00 0.02 0.00 65 1013.2
20260505090519 58 338 1.7 6.1 0.00 0.02 0.00 67 1013.5
20260505085535 58 315 1.7 7.0 0.00 0.02 0.00 68 1013.3
20260505084520 57 45 2.6 7.8 0.00 0.02 0.00 69 1013.5
20260505083519 57 45 2.6 7.8 0.00 0.02 0.00 70 1013.5
20260505082519 57 45 4.3 8.7 0.00 0.02 0.00 71 1013.5
20260505081557 57 45 4.3 9.6 0.00 0.02 0.00 70 1013.4
20260505080524 56 45 3.5 10.4 0.00 0.02 0.00 72 1013.5
20260505075539 56 45 2.6 9.6 0.00 0.02 0.00 74 1013.4
20260505074519 56 68 1.7 11.3 0.00 0.02 0.00 76 1013.5
20260505073533 56 45 3.5 8.7 0.00 0.02 0.00 77 1013.5
20260505072533 55 45 1.7 5.2 0.00 0.02 0.00 80 1013.4
20260505071533 55 45 2.6 8.7 0.00 0.02 0.00 80 1013.5
20260505070519 54 45 1.7 7.0 0.00 0.02 0.00 83 1013.5
20260505065519 54 45 2.6 6.1 0.00 0.02 0.00 84 1013.6
20260505064518 54 315 0.9 2.6 0.00 0.02 0.00 85 1013.8
20260505063524 54 68 1.7 4.3 0.00 0.02 0.00 85 1014.0
20260505062519 54 45 0.9 1.7 0.00 0.02 0.00 86 1013.8
20260505061539 54 45 0.9 2.6 0.00 0.02 0.00 86 1013.7
20260505060519 53 23 1.7 4.3 0.00 0.02 0.00 86 1013.8
20260505055520 53 45 1.7 4.3 0.00 0.02 0.00 86 1013.8
20260505054557 53 45 2.6 5.2 0.00 0.02 0.00 86 1013.8
20260505053539 53 45 1.7 3.5 0.00 0.02 0.00 87 1013.8
20260505052519 53 45 2.6 6.1 0.00 0.02 0.00 87 1013.8
20260505051519 53 45 1.7 6.1 0.00 0.02 0.00 88 1013.7